When you browse on this site, cookies collect data to enhance your experience and personalize the content and advertising you see.
Visit our Privacy Policy to learn more. By continuing to use the site, you agree to this use of cookies and data.
  • In Hungary
  • List of Countries
  • For 7 days
  • Water Temperature
  • Satellite Maps
  • Weather Map
  • News
  • Weather Widgets
  • user-avatar
    Login

    Hourly Weather Vysokopole

    Today, 17 January, Thursday

    Time Temperature Precipitation Wind Pressure Humidity
    00:00 -5°C° 0 mm 4 mps 752 mmHg 91%
    01:00 -7°C° 0 mm 4 mps 753 mmHg 91%
    02:00 -9°C° 0 mm 4 mps 753 mmHg 87%
    03:00 -9°C° 0 mm 4 mps 754 mmHg 87%
    04:00 -9°C° 0 mm 3 mps 754 mmHg 87%
    05:00 -9°C° 0 mm 3 mps 755 mmHg 86%
    06:00 -8°C° 0 mm 2 mps 755 mmHg 86%
    07:00 -8°C° 0 mm 2 mps 756 mmHg 86%
    08:00 -7°C° 0 mm 1 mps 756 mmHg 85%
    09:00 -6°C° 0 mm 1 mps 756 mmHg 82%
    10:00 -3°C° 0 mm 1 mps 757 mmHg 78%
    11:00 -3°C° 0 mm 0 mps 757 mmHg 75%
    12:00 -1°C° 0 mm 1 mps 757 mmHg 74%
    13:00 0°C° 0 mm 1 mps 757 mmHg 73%
    14:00 -2°C° 0 mm 2 mps 757 mmHg 72%
    15:00 -2°C° 0 mm 3 mps 757 mmHg 74%
    16:00 -4°C° 0 mm 3 mps 757 mmHg 75%
    17:00 -4°C° 0 mm 3 mps 757 mmHg 77%
    18:00 -4°C° 0 mm 4 mps 756 mmHg 79%
    19:00 -4°C° 0 mm 4 mps 756 mmHg 81%
    20:00 -4°C° 0 mm 4 mps 756 mmHg 83%
    21:00 -4°C° 0 mm 4 mps 756 mmHg 84%
    22:00 -4°C° 0 mm 5 mps 756 mmHg 85%
    23:00 -4°C° 0 mm 5 mps 756 mmHg 86%

    Tomorrow, 18 January, Friday

    Time Temperature Precipitation Wind Pressure Humidity
    00:00 -4°C° 0 mm 5 mps 756 mmHg 87%
    01:00 -2°C° 0 mm 5 mps 755 mmHg 88%
    02:00 -2°C° 0 mm 5 mps 755 mmHg 89%
    03:00 -2°C° 0 mm 5 mps 755 mmHg 91%
    04:00 -1°C° 0 mm 5 mps 755 mmHg 92%
    05:00 -1°C° 0 mm 5 mps 755 mmHg 94%
    06:00 -1°C° 0 mm 5 mps 755 mmHg 94%
    07:00 -1°C° 0 mm 5 mps 755 mmHg 95%
    08:00 -1°C° 0 mm 4 mps 755 mmHg 95%
    09:00 0°C° 0 mm 4 mps 755 mmHg 95%
    10:00 +1°C° 0 mm 4 mps 755 mmHg 94%
    11:00 +1°C° 0 mm 4 mps 755 mmHg 93%
    12:00 +3°C° 0 mm 4 mps 755 mmHg 91%
    13:00 +3°C° 0 mm 4 mps 755 mmHg 89%
    14:00 +3°C° 0 mm 4 mps 755 mmHg 87%
    15:00 +3°C° 0 mm 4 mps 755 mmHg 88%
    16:00 +1°C° 0 mm 4 mps 755 mmHg 88%
    17:00 0°C° 0 mm 4 mps 755 mmHg 89%
    18:00 0°C° 0 mm 4 mps 755 mmHg 91%
    19:00 0°C° 0 mm 4 mps 755 mmHg 94%
    20:00 0°C° 0 mm 3 mps 755 mmHg 96%
    21:00 +1°C° 0 mm 3 mps 755 mmHg 96%
    22:00 0°C° 0 mm 4 mps 755 mmHg 97%
    23:00 0°C° 0 mm 4 mps 755 mmHg 98%

    Day after tomorrow, 19 January, Saturday

    Time Temperature Precipitation Wind Pressure Humidity
    00:00 +1°C° 0 mm 3 mps 755 mmHg 97%
    01:00 +1°C° 0 mm 3 mps 755 mmHg 97%
    02:00 +1°C° 0 mm 3 mps 755 mmHg 97%
    03:00 +1°C° 0.1 mm 3 mps 754 mmHg 97%
    04:00 +2°C° 0.1 mm 2 mps 754 mmHg 97%
    05:00 +2°C° 0.1 mm 2 mps 754 mmHg 97%
    06:00 +1°C° 0 mm 2 mps 755 mmHg 95%
    07:00 0°C° 0 mm 3 mps 755 mmHg 94%
    08:00 -2°C° 0 mm 4 mps 755 mmHg 93%
    09:00 -1°C° 0 mm 4 mps 756 mmHg 90%
    10:00 -1°C° 0 mm 5 mps 756 mmHg 88%
    11:00 -1°C° 0 mm 5 mps 757 mmHg 86%
    12:00 -1°C° 0 mm 5 mps 757 mmHg 85%
    13:00 -1°C° 0 mm 5 mps 758 mmHg 84%
    14:00 -2°C° 0 mm 6 mps 758 mmHg 83%
    15:00 -2°C° 0 mm 5 mps 758 mmHg 84%
    16:00 -4°C° 0 mm 5 mps 759 mmHg 84%
    17:00 -4°C° 0 mm 4 mps 760 mmHg 85%
    18:00 -5°C° 0 mm 4 mps 760 mmHg 84%
    19:00 -5°C° 0 mm 4 mps 760 mmHg 83%
    20:00 -7°C° 0 mm 4 mps 761 mmHg 82%
    21:00 -7°C° 0 mm 4 mps 761 mmHg 81%
    22:00 -7°C° 0 mm 4 mps 761 mmHg 80%
    23:00 -7°C° 0 mm 3 mps 762 mmHg 79%

    20 January, Sunday

    Time Temperature Precipitation Wind Pressure Humidity
    00:00 -7°C° 0 mm 3 mps 762 mmHg 79%
    01:00 -7°C° 0 mm 3 mps 762 mmHg 79%
    02:00 -7°C° 0 mm 3 mps 762 mmHg 78%
    03:00 -7°C° 0 mm 3 mps 762 mmHg 79%
    04:00 -7°C° 0 mm 3 mps 762 mmHg 79%
    05:00 -7°C° 0 mm 3 mps 762 mmHg 79%
    06:00 -7°C° 0 mm 3 mps 762 mmHg 80%
    07:00 -7°C° 0 mm 3 mps 762 mmHg 80%
    08:00 -7°C° 0 mm 3 mps 762 mmHg 80%
    09:00 -6°C° 0 mm 3 mps 762 mmHg 75%
    10:00 -5°C° 0 mm 3 mps 762 mmHg 70%
    11:00 -4°C° 0 mm 3 mps 762 mmHg 66%
    12:00 -4°C° 0 mm 3 mps 762 mmHg 63%
    13:00 -2°C° 0 mm 3 mps 761 mmHg 60%
    14:00 -1°C° 0 mm 3 mps 761 mmHg 58%
    15:00 -2°C° 0 mm 3 mps 760 mmHg 61%
    16:00 -2°C° 0 mm 3 mps 760 mmHg 64%
    17:00 -4°C° 0 mm 3 mps 760 mmHg 67%
    18:00 -4°C° 0 mm 3 mps 760 mmHg 70%
    19:00 -4°C° 0 mm 3 mps 759 mmHg 72%
    20:00 -4°C° 0 mm 4 mps 759 mmHg 75%
    21:00 -4°C° 0 mm 4 mps 759 mmHg 78%
    22:00 -4°C° 0 mm 4 mps 759 mmHg 80%
    23:00 -4°C° 0 mm 3 mps 758 mmHg 83%

    21 January, Monday

    Time Temperature Precipitation Wind Pressure Humidity
    00:00 -4°C° 0.2 mm 3 mps 758 mmHg 85%
    01:00 -2°C° 0.2 mm 3 mps 757 mmHg 87%
    02:00 -2°C° 0.2 mm 3 mps 757 mmHg 88%
    03:00 -2°C° 0.3 mm 3 mps 756 mmHg 90%
    04:00 -2°C° 0.3 mm 3 mps 756 mmHg 91%
    05:00 -3°C° 0.3 mm 4 mps 755 mmHg 93%
    06:00 -2°C° 1.6 mm 3 mps 754 mmHg 94%
    07:00 -2°C° 1.6 mm 3 mps 754 mmHg 96%
    08:00 -1°C° 1.6 mm 3 mps 754 mmHg 97%
    09:00 -1°C° 1.3 mm 3 mps 753 mmHg 98%
    10:00 -1°C° 1.3 mm 2 mps 753 mmHg 98%
    11:00 -1°C° 1.3 mm 2 mps 753 mmHg 99%
    12:00 -1°C° 0.8 mm 3 mps 753 mmHg 99%
    13:00 -1°C° 0.8 mm 3 mps 753 mmHg 98%
    14:00 -2°C° 0.8 mm 4 mps 753 mmHg 98%
    15:00 -2°C° 0.1 mm 5 mps 753 mmHg 96%
    16:00 -2°C° 0.1 mm 5 mps 754 mmHg 94%
    17:00 -4°C° 0.1 mm 5 mps 754 mmHg 92%
    18:00 -5°C° 0.1 mm 6 mps 755 mmHg 91%
    19:00 -5°C° 0.1 mm 6 mps 756 mmHg 90%
    20:00 -6°C° 0.1 mm 6 mps 757 mmHg 89%
    21:00 -7°C° 0 mm 5 mps 757 mmHg 89%
    22:00 -8°C° 0 mm 5 mps 758 mmHg 89%
    23:00 -8°C° 0 mm 5 mps 759 mmHg 88%

    22 January, Tuesday

    Time Temperature Precipitation Wind Pressure Humidity
    00:00 -10°C° 0 mm 5 mps 759 mmHg 88%
    01:00 -10°C° 0 mm 5 mps 760 mmHg 88%
    02:00 -9°C° 0 mm 4 mps 760 mmHg 88%
    03:00 -10°C° 0 mm 4 mps 760 mmHg 89%
    04:00 -10°C° 0 mm 3 mps 761 mmHg 90%
    05:00 -12°C° 0 mm 3 mps 761 mmHg 91%
    06:00 -12°C° 0 mm 3 mps 761 mmHg 92%
    07:00 -13°C° 0 mm 3 mps 762 mmHg 92%
    08:00 -13°C° 0 mm 3 mps 762 mmHg 93%
    09:00 -12°C° 0 mm 3 mps 762 mmHg 91%
    10:00 -10°C° 0 mm 3 mps 762 mmHg 89%
    11:00 -9°C° 0 mm 3 mps 762 mmHg 87%
    12:00 -8°C° 0 mm 3 mps 762 mmHg 86%
    13:00 -8°C° 0 mm 3 mps 761 mmHg 84%
    14:00 -8°C° 0 mm 4 mps 761 mmHg 83%
    15:00 -8°C° 0 mm 4 mps 761 mmHg 84%
    16:00 -8°C° 0 mm 3 mps 760 mmHg 86%
    17:00 -9°C° 0 mm 3 mps 760 mmHg 87%
    18:00 -9°C° 0 mm 4 mps 760 mmHg 86%
    19:00 -9°C° 0 mm 4 mps 760 mmHg 85%
    20:00 -9°C° 0 mm 4 mps 759 mmHg 84%
    21:00 -8°C° 0 mm 5 mps 759 mmHg 84%
    22:00 -8°C° 0 mm 5 mps 759 mmHg 84%
    23:00 -7°C° 0 mm 5 mps 758 mmHg 84%
    Show more